Hourly Data Report for June 15, 2021

MANIWAKI AIRPORT
QUEBEC
Current Station Operator: ECCC - MSC

46°16'29.000" N
75°59'31.000" W
199.70 m
7034482
71721
WMJ

Download Data

Hourly Data (June 2021)
Hourly Data Report for June 15, 2021
TIME
LST
Temp Definition
°C
Dew Point Definition
°C
Rel Hum Definition
%
Precip. Amount Definition
mm

Wind Dir Definition
10's deg

Wind Spd Definition
km/h
Visibility Definition
km
Stn Press Definition
kPa
Hmdx Definition


Wind Chill Definition


Weather Definition


00:00 15.2 14.9 98 0.0 5 2   98.32     LegendNANA
01:00 15.0 14.6 98 0.0 5 3   98.32     LegendNANA
02:00 15.0 14.7 98 0.0 7 2   98.31     LegendNANA
03:00 15.0 14.8 99 0.0 35 5   98.29     LegendNANA
04:00 15.4 14.7 96 0.0 34 10   98.32     LegendNANA
05:00 13.5 12.0 91 1.1 35 13   98.39     LegendNANA
06:00 12.5 10.3 86 0.0 35 15   98.42     LegendNANA
07:00 11.6 8.2 79 0.0 35 12   98.47     LegendNANA
08:00 12.5 8.1 74 0.0 36 12   98.50     LegendNANA
09:00 13.6 7.9 69 0.0 35 15   98.53     LegendNANA
10:00 15.7 7.3 58 0.0 35 21   98.54     LegendNANA
11:00 17.0 6.8 51 0.0 34 19   98.55     LegendNANA
12:00 18.6 5.6 42 0.0 35 21   98.56     LegendNANA
13:00 21.2 7.4 41 0.0 36 17   98.49     LegendNANA
14:00 22.3 5.2 33 0.0 34 13   98.51     LegendNANA
15:00 21.3 1.3 27 0.0 33 22   98.53     LegendNANA
16:00 21.3 1.3 26 0.0 34 21   98.58     LegendNANA
17:00 20.4 0.3 26 0.0 34 23   98.63     LegendNANA
18:00 19.2 1.5 31 0.0 33 21   98.69     LegendNANA
19:00 17.9 2.0 34 0.0 34 17   98.77     LegendNANA
20:00 15.7 2.0 40 0.0 33 16   98.83     LegendNANA
21:00 14.5 1.9 42 0.0 33 14   98.87     LegendNANA
22:00 13.2 3.1 50 0.0 34 11   98.90     LegendNANA
23:00 12.5 3.6 55 0.0 35 10   98.91     LegendNANA

Notes on Data Quality.

Legend

  • E = Estimated
  • M = Missing
  • NA = Not Available*
  • [empty] = Indicates an unobserved value
Date modified: